Location: Larkspur
(54.4391°N, 113.7691°W)
Time: 13:51:56
(UTC+00:00)

Oscar 19 - Pass Details

Date: 08 December 2023
Orbit: 771 x 789 km, 98.9° (Epoch: 01 March)

Event Time Altitude Azimuth Distance (km) Brightness Sun altitude
Rises 13:40:32 0° 12° (NNE) 3,275 13.8 -16.4°
Reaches altitude 10° 13:43:00 10° 4° (N) 2,346 13.0 -16.1°
Maximum altitude 13:47:41 36° 300° (WNW) 1,228 11.1 -15.4°
Drops below altitude 10° 13:52:21 10° 235° (SW) 2,343 12.8 -14.8°
Sets 13:54:49 0° 227° (SW) 3,270 13.6 -14.4°
